Theta_e
351 350 346 340 336 334 333 335 333 331 330 330 331 334 337 338 339 340 339 336 333 332 333 334 334 335 334 333 331 328 325 326 327 327 327 328 328 327 326 325 326 328 333 337 336 329 323 321 318 316 316 315 314 315 316 317 316 316 316 315 315 315 313 311 311 310 309 309 310 311 311 311 312 312 313 314 315 316 317 320 319 313 306 309 319
351 349 345 339 335 334 334 335 333 332 330 329 330 331 334 336 339 339 339 336 333 332 333 335 336 336 336 333 330 327 325 325 327 328 329 330 331 331 329 327 326 327 330 333 333 326 322 322 319 316 315 313 314 315 316 317 317 316 316 316 315 315 314 312 311 310 311 311 310 309 310 311 311 312 312 313 312 310 308 308 313 311 305 307 314
350 349 344 338 335 334 335 335 334 333 331 330 330 330 332 336 339 339 339 335 333 333 334 336 337 338 336 332 328 326 324 325 327 328 329 330 331 332 333 331 329 327 325 327 328 325 321 321 318 315 315 314 314 315 315 316 316 316 316 315 315 315 314 313 313 314 317 320 320 316 312 310 311 311 311 313 312 309 307 306 308 307 305 306 311
349 348 342 337 335 334 335 336 335 333 332 332 331 330 331 336 339 339 338 334 333 333 335 338 338 337 334 328 325 324 323 325 327 329 329 329 329 330 334 334 334 331 326 321 322 323 322 320 317 314 315 314 314 314 315 315 315 315 315 315 315 315 315 314 316 319 325 330 331 330 323 313 309 311 311 312 313 311 308 307 307 307 307 305 308
349 346 341 338 335 335 335 336 336 334 333 333 332 331 332 336 338 339 337 334 334 334 336 338 338 335 329 322 321 320 321 324 328 330 331 329 327 327 332 336 337 337 329 320 318 320 322 321 318 315 315 315 314 314 314 314 314 315 314 315 315 315 316 316 319 326 331 334 334 335 333 323 312 310 311 311 312 312 310 308 307 311 314 311 310
349 345 340 338 335 335 335 336 337 335 334 333 333 332 332 334 336 337 336 334 334 335 337 338 336 330 323 317 315 316 317 322 325 328 330 329 327 325 328 332 334 333 327 322 319 318 320 322 319 315 315 315 313 314 313 314 314 314 315 314 315 315 316 317 323 331 335 335 335 335 336 331 317 309 310 311 311 312 311 309 308 313 319 319 318
349 345 340 339 337 335 335 336 337 336 335 333 333 333 332 333 334 335 335 335 335 335 337 337 332 323 317 315 314 313 314 315 317 321 325 326 327 326 325 326 326 324 322 322 321 318 318 320 320 316 315 315 314 314 313 314 314 314 314 314 314 314 316 319 325 333 335 336 337 335 337 334 320 309 310 310 311 312 312 311 309 310 317 321 321
348 345 342 340 339 337 336 336 337 337 335 333 333 333 333 332 333 334 334 335 335 336 335 331 324 318 316 316 315 314 314 313 314 316 320 324 324 325 326 328 326 324 322 320 318 317 317 318 320 317 315 315 314 314 314 314 314 314 314 314 314 314 316 319 326 333 335 336 337 336 336 335 326 311 309 310 310 312 312 311 310 309 313 319 320
347 345 344 341 341 340 337 337 337 337 335 333 333 333 333 332 332 333 334 334 334 332 328 323 319 317 318 318 318 317 317 315 315 317 320 323 325 327 331 333 331 329 328 324 318 315 317 317 319 319 315 314 314 313 314 314 314 314 313 314 313 314 316 319 330 335 336 337 337 337 336 337 330 314 308 310 309 311 311 311 311 310 310 313 315
347 346 345 342 340 340 339 338 337 336 335 333 334 333 333 331 331 331 332 331 329 327 323 321 320 320 321 321 321 320 318 317 318 322 323 323 327 331 334 336 336 335 333 329 322 317 317 317 318 318 316 313 314 314 313 314 314 314 313 314 314 314 316 321 331 335 336 334 333 336 336 335 329 315 309 309 308 310 311 312 311 310 310 310 310
348 347 345 343 340 339 339 337 337 336 334 333 333 333 332 331 331 330 330 329 327 325 324 324 324 326 329 329 329 325 321 321 322 326 326 324 328 333 335 337 338 337 335 331 326 322 318 317 318 316 316 314 314 315 314 315 314 314 314 315 315 314 316 322 329 335 337 333 331 334 334 331 321 313 311 309 309 309 310 311 311 311 310 309 310
348 348 346 344 340 338 338 337 337 335 334 333 333 332 331 331 331 331 330 330 329 328 327 328 328 332 334 334 334 331 327 326 327 328 326 325 327 331 334 336 337 336 335 331 328 327 322 321 322 318 316 315 315 316 316 316 315 315 315 316 317 316 318 322 329 336 337 334 334 335 336 331 317 312 312 309 309 308 309 309 310 311 310 309 310
347 347 347 344 339 337 337 337 336 335 334 333 332 332 332 332 332 332 332 331 331 330 330 330 332 334 335 335 336 334 331 329 330 330 326 324 324 327 330 332 333 332 331 329 327 327 326 325 325 322 318 317 316 316 316 317 317 316 316 316 318 318 319 325 333 336 336 335 335 334 333 326 315 314 313 311 310 308 308 308 309 310 311 310 310
347 347 347 343 337 335 336 336 336 335 334 333 333 332 333 333 332 333 332 332 331 331 332 332 332 333 335 336 335 334 333 333 332 331 328 326 324 323 324 324 324 323 324 325 324 323 323 323 322 321 318 317 316 316 316 316 318 318 318 319 319 321 320 325 334 336 335 335 334 335 330 317 314 316 313 312 311 308 308 308 309 309 311 310 310
347 346 345 342 337 335 336 336 336 335 334 333 333 334 335 334 333 333 332 332 332 331 332 332 332 332 335 336 335 335 335 334 333 332 330 329 327 324 323 322 321 319 320 321 321 320 319 319 319 320 319 318 317 316 316 316 317 318 319 321 321 322 321 327 335 334 335 335 334 336 329 315 314 315 314 314 312 309 308 308 308 309 310 310 310
347 345 345 343 337 336 337 336 335 335 334 334 335 336 336 335 334 334 333 333 332 332 332 332 332 333 335 336 335 335 335 335 333 332 331 329 329 328 325 323 322 320 319 319 319 319 318 317 317 318 318 319 318 316 316 316 317 317 318 321 324 323 323 331 336 335 336 336 334 334 326 315 315 314 315 315 313 311 308 308 308 308 309 309 310
346 345 345 343 338 337 338 336 334 334 335 335 336 336 336 336 336 335 334 334 333 332 332 332 333 333 335 336 335 335 335 335 333 333 331 331 330 330 328 324 322 322 321 320 319 319 319 318 317 317 317 318 318 317 317 319 319 319 319 322 325 324 325 330 335 336 336 335 335 335 329 317 314 314 314 314 314 313 311 309 308 308 308 308 309
345 345 344 343 340 338 338 336 334 334 335 335 336 336 336 337 336 336 335 334 334 333 333 333 333 333 333 335 336 336 335 334 334 333 331 331 331 332 331 326 323 322 322 321 321 320 319 319 318 318 317 318 319 319 320 321 321 322 323 324 325 325 325 328 334 336 334 334 335 335 330 320 316 314 313 314 314 314 312 310 309 308 307 308 308
345 345 344 343 342 340 338 336 335 335 335 335 336 336 336 336 336 336 336 335 335 333 333 333 333 333 331 334 336 335 335 335 334 333 331 330 330 331 331 328 324 322 322 322 322 322 321 321 320 319 318 318 318 319 320 321 322 323 325 326 325 325 325 327 333 335 333 334 335 334 330 323 319 315 313 314 313 314 313 312 310 308 307 307 308
345 344 344 343 343 341 339 337 336 335 335 336 336 336 336 336 336 336 336 335 335 333 333 333 333 333 331 333 334 334 334 334 334 331 330 329 330 330 329 328 324 321 322 322 322 323 323 322 321 320 319 318 318 317 318 321 322 323 325 326 326 325 325 330 335 335 333 334 333 333 330 324 321 316 313 313 313 314 314 313 311 309 308 307 307
344 343 343 342 342 340 339 338 336 335 336 336 336 336 336 336 335 335 336 335 335 334 334 334 334 333 332 334 334 334 334 334 333 330 329 328 328 329 327 327 324 321 322 322 323 323 323 322 321 321 320 319 318 317 317 319 321 322 323 325 326 325 327 334 335 334 333 333 332 331 327 325 323 319 316 314 313 313 313 314 312 310 309 308 307
343 341 341 342 341 339 338 337 337 337 337 336 335 336 335 334 333 333 335 335 334 333 333 333 334 334 333 334 334 334 333 333 332 330 330 330 329 329 327 325 323 322 322 322 323 323 322 321 321 320 320 319 319 320 321 321 321 320 322 323 325 327 331 334 334 333 332 333 333 329 326 325 323 321 319 316 314 313 313 313 313 312 310 309 308
343 340 340 341 340 338 338 338 340 339 337 335 335 335 335 333 331 332 333 333 332 331 332 333 334 335 334 334 333 332 333 333 333 331 330 330 330 329 327 325 323 322 322 322 322 322 321 320 321 320 320 319 320 325 329 329 325 322 320 322 327 332 335 334 333 334 333 333 332 327 326 325 323 322 321 319 316 314 313 313 313 313 311 309 308
342 340 338 338 337 336 337 338 339 339 336 335 334 334 334 332 329 330 332 332 331 331 332 333 334 334 332 332 331 331 333 332 332 332 331 331 331 329 329 327 325 323 322 324 324 322 321 321 321 320 320 322 326 329 331 331 330 328 325 327 332 335 335 334 332 333 334 332 330 327 326 324 323 323 322 321 318 315 314 313 313 314 312 310 308
342 340 338 338 337 336 335 336 337 336 335 334 333 333 333 332 331 331 333 332 330 332 332 331 332 333 331 331 331 332 333 332 331 331 331 331 331 330 331 329 328 326 323 326 329 326 325 327 325 321 323 328 330 331 331 332 331 331 331 332 334 335 335 334 333 333 334 332 329 327 326 324 323 323 322 321 319 317 315 313 313 313 313 310 309
342 341 339 339 338 337 336 335 336 334 335 335 333 334 334 332 332 332 331 331 330 331 330 329 331 332 332 333 333 332 332 331 330 331 330 331 331 330 330 330 329 328 325 326 330 329 329 331 330 328 330 331 331 331 330 331 330 330 331 331 332 333 335 334 334 334 333 332 330 328 327 326 325 323 322 321 320 318 316 315 314 313 313 311 309
341 341 338 337 336 336 336 336 336 333 334 334 333 333 333 332 331 331 331 331 330 328 329 331 333 333 334 335 334 332 331 331 330 331 331 331 332 331 330 329 328 328 327 328 330 330 330 331 331 332 333 332 332 331 330 329 329 329 330 330 330 332 334 334 333 333 333 332 330 329 327 327 326 325 322 321 321 318 317 318 315 313 313 312 310
340 339 336 335 332 332 336 337 335 333 333 334 333 332 333 332 330 330 331 332 332 331 333 334 335 335 335 335 333 331 332 332 330 331 331 331 331 330 330 330 330 329 329 330 331 330 331 332 332 332 332 332 331 330 330 329 328 329 329 329 329 330 332 333 333 333 333 332 330 329 328 328 328 327 323 320 320 319 322 323 318 314 313 314 312
339 337 334 333 330 331 336 336 334 334 333 333 334 334 335 333 332 329 329 332 334 336 336 335 336 336 335 334 331 330 331 331 330 330 331 332 332 331 330 331 331 330 330 331 332 331 332 334 333 332 332 332 331 330 331 330 328 328 328 328 328 328 329 331 333 333 333 332 329 329 329 330 330 328 324 320 319 320 325 326 323 318 314 314 313
336 335 334 333 333 332 335 335 332 334 334 333 333 334 334 332 332 329 329 335 336 336 336 335 335 334 333 333 330 329 330 330 329 330 331 331 332 331 331 332 331 330 331 331 332 332 333 334 334 333 332 331 331 331 330 330 329 328 328 328 327 327 328 330 332 333 333 331 328 328 330 331 331 330 327 323 319 320 324 326 325 322 318 315 315
336 336 335 334 334 333 335 334 333 334 334 333 332 332 331 331 333 332 332 336 335 334 336 335 334 333 332 330 328 329 330 330 330 330 330 329 330 330 330 330 331 331 331 331 332 332 332 332 333 332 330 330 331 331 330 331 330 328 328 328 327 328 329 330 331 331 331 331 329 328 329 330 331 331 329 326 322 319 322 325 324 323 321 317 315
337 336 335 334 334 334 335 335 334 333 331 332 332 330 331 333 335 334 335 335 333 334 335 335 333 333 332 327 328 330 330 330 330 330 330 330 329 329 331 329 329 330 330 330 330 330 330 330 330 328 327 329 331 331 331 331 331 330 328 327 328 328 329 329 329 330 330 331 331 327 326 328 330 331 330 327 324 320 320 324 325 323 322 320 316
338 336 334 334 335 335 335 335 333 331 330 331 331 332 335 336 336 336 335 333 333 334 334 334 333 332 330 327 327 329 330 330 330 330 330 331 330 330 331 330 329 329 329 328 328 328 329 329 329 327 326 327 328 330 330 331 331 331 330 329 328 328 328 328 328 330 331 331 331 328 326 327 329 330 330 327 326 322 318 321 322 323 324 322 317
338 336 335 335 335 336 336 334 332 331 331 331 332 335 336 336 337 336 335 333 333 334 333 333 332 331 330 328 328 328 329 330 330 331 330 330 330 330 331 331 329 328 327 326 328 329 328 328 328 326 327 327 327 329 329 331 331 331 330 330 329 328 329 328 329 330 330 331 331 331 330 329 328 330 330 328 326 324 320 318 317 318 320 318 314
338 336 336 337 335 336 337 334 330 330 332 333 335 337 336 336 337 336 334 334 333 333 332 332 331 331 330 328 329 329 329 329 330 330 330 330 331 330 330 331 329 328 327 327 329 329 328 328 327 325 326 327 327 328 327 328 330 331 331 331 331 330 329 329 330 329 329 330 330 330 330 330 329 329 330 329 328 326 323 319 315 314 314 314 314
339 337 338 337 334 335 337 335 332 331 332 333 334 334 335 336 337 334 333 332 331 330 329 328 329 330 330 329 329 329 329 329 330 330 330 331 331 331 329 329 329 328 328 328 329 329 327 327 326 325 325 327 327 328 327 326 328 331 331 331 331 331 331 330 330 329 329 329 329 329 329 328 330 330 328 328 328 328 326 322 318 316 316 317 319
339 338 338 335 332 334 335 334 334 334 332 332 333 333 333 335 335 332 331 330 328 327 326 325 327 329 329 327 326 328 328 328 330 330 330 331 332 331 330 329 329 328 328 328 329 328 326 326 325 326 326 328 328 328 327 326 328 330 331 331 331 331 331 331 332 331 330 330 329 330 329 327 329 329 328 328 328 327 327 326 322 319 319 320 322
339 337 336 333 332 334 333 333 333 333 330 330 333 335 334 334 333 330 328 328 328 327 328 328 328 329 329 327 325 326 326 326 328 329 329 331 332 332 331 330 329 329 328 328 328 327 327 326 326 327 327 327 328 328 327 326 328 330 330 330 331 331 331 332 332 331 330 330 330 329 328 329 329 327 326 326 326 325 325 327 326 323 322 322 323
339 337 334 331 333 334 331 332 332 331 328 329 334 335 334 332 329 328 327 328 329 329 330 331 330 330 328 327 327 327 326 325 326 328 330 331 331 331 331 330 330 330 329 328 328 327 326 325 326 327 326 327 328 328 328 328 329 330 330 330 330 330 331 331 331 331 330 328 329 329 329 330 330 326 324 323 324 325 324 325 326 325 325 325 325
338 336 332 331 334 334 329 330 331 332 330 331 335 334 333 330 327 328 328 329 329 328 330 331 330 329 326 325 325 326 327 327 326 327 329 329 329 329 329 329 329 329 329 328 328 327 326 326 326 327 326 327 329 329 329 328 330 331 330 330 330 330 330 330 330 331 331 328 329 330 329 330 328 325 324 324 324 325 325 324 324 324 326 326 326
336 335 332 333 335 334 331 330 331 333 331 331 334 333 332 330 327 329 329 330 329 328 330 329 327 327 325 325 325 323 324 325 326 327 328 328 327 327 328 328 328 329 328 328 327 326 326 326 328 328 328 328 329 330 329 329 330 331 330 329 329 328 329 330 329 330 330 330 330 330 329 328 326 326 326 324 323 323 324 325 325 325 326 326 326
335 333 333 334 334 332 331 330 332 332 329 329 330 330 330 329 328 330 329 330 328 328 329 327 324 320 317 319 322 323 323 323 323 322 324 326 326 327 326 326 327 327 326 326 326 325 325 327 328 329 329 329 329 330 329 328 329 330 329 329 329 328 328 328 328 329 329 329 330 329 328 327 326 327 326 324 323 322 322 323 326 327 326 326 326
335 333 334 333 328 327 327 327 330 330 326 324 324 326 330 329 329 329 329 329 329 329 327 325 323 319 316 317 319 321 323 323 321 321 323 323 322 323 323 322 322 322 323 323 324 325 324 326 327 328 329 330 330 329 328 328 329 330 329 329 329 328 328 328 327 328 328 329 329 329 328 327 327 327 326 326 326 325 324 324 326 327 328 327 327
334 332 334 330 324 326 325 324 328 328 324 321 321 327 331 329 329 330 330 329 327 327 324 322 323 321 320 321 321 322 324 324 323 323 324 321 319 321 321 320 318 319 323 323 324 324 324 325 326 327 328 329 330 328 328 328 329 330 330 330 329 328 328 328 327 327 327 327 328 328 328 327 327 327 326 326 326 326 326 325 325 326 327 326 325
333 331 331 328 324 325 324 324 327 325 322 321 323 328 329 327 326 327 326 325 324 325 324 322 323 323 323 322 323 325 324 324 324 323 323 322 321 321 322 321 320 321 324 325 325 324 324 324 326 326 327 327 328 329 329 329 329 330 329 330 329 327 328 328 328 328 326 326 327 327 327 326 326 327 326 325 325 325 325 326 325 325 326 326 326
332 330 330 328 325 325 326 325 324 322 320 322 326 327 326 321 321 323 324 324 326 327 326 323 322 323 324 324 325 325 324 324 323 323 323 323 322 322 322 323 323 321 323 324 324 324 324 323 323 325 326 326 326 328 329 328 329 328 328 329 329 328 328 328 328 328 326 326 326 326 327 327 326 326 326 326 326 326 326 326 326 325 326 327 327
332 331 329 327 326 326 327 324 322 322 320 322 326 327 325 321 322 326 326 327 328 327 325 324 324 324 323 324 325 325 324 323 323 323 322 322 322 322 323 323 323 322 322 322 323 324 324 323 322 324 326 326 326 327 328 328 328 327 327 328 327 327 328 327 326 327 327 327 326 325 325 326 327 326 326 326 326 325 326 326 326 326 326 325 325
333 333 331 330 329 329 329 326 324 324 321 322 327 327 327 327 327 328 328 328 327 323 322 322 323 323 323 323 323 324 324 323 323 322 320 319 319 320 322 322 322 322 321 322 322 323 322 321 320 322 324 325 325 326 327 327 327 327 326 325 326 327 327 328 327 327 327 327 327 326 325 325 326 326 326 326 325 325 326 326 326 325 324 324 324
333 333 333 332 330 329 330 329 327 327 325 326 328 327 328 330 328 328 328 326 320 317 320 321 321 323 323 323 322 322 322 322 322 320 318 318 318 318 319 320 321 320 319 320 321 321 321 320 319 320 322 324 324 325 326 326 327 327 326 325 326 327 327 328 328 327 326 326 326 328 327 326 325 325 325 325 325 325 325 325 325 325 324 323 324
332 332 330 327 326 325 329 331 328 328 329 329 329 329 330 330 328 328 326 321 318 319 318 316 318 321 322 322 321 320 321 321 320 318 318 318 318 319 317 317 318 319 319 320 319 318 317 316 315 316 318 320 322 321 322 324 325 326 326 326 326 325 325 326 326 326 326 323 324 327 327 325 325 324 323 323 323 323 323 323 323 323 323 322 321
332 332 329 325 324 323 326 328 325 327 330 329 330 330 330 330 329 326 322 316 316 316 311 310 315 320 321 322 321 321 320 319 318 315 314 313 313 314 315 315 316 318 320 320 320 318 316 316 316 313 314 317 319 320 320 322 323 323 323 323 323 323 323 324 324 325 325 323 323 325 326 325 324 323 322 321 321 321 320 321 321 321 321 320 318
Wind_Speed
16 15 17 22 20 20 19 19 18 18 18 18 18 17 17 16 17 17 17 17 17 17 17 16 15 14 13 12 11 11 11 11 12 13 14 13 12 10 9 9 10 11 11 11 10 11 11 12 12 12 11 10 9 10 11 13 14 14 15 15 15 15 14 15 15 16 17 17 16 15 15 14 13 13 13 14 15 16 14 12 11 9 10 11 10
17 16 20 23 21 21 20 19 18 18 18 18 18 18 17 17 17 17 17 17 18 18 17 15 15 14 13 12 11 11 11 11 12 12 13 12 12 10 9 9 10 10 10 10 9 10 11 12 13 12 11 10 10 11 13 14 14 14 14 14 14 14 14 14 15 16 17 16 16 15 15 14 13 13 12 13 15 16 15 14 13 11 12 12 10
17 18 23 23 22 22 20 19 18 18 18 18 18 18 18 17 18 18 18 18 19 18 16 15 15 14 13 11 11 11 12 12 11 11 11 11 11 11 10 9 8 9 9 10 9 9 11 12 12 12 11 10 11 12 13 13 13 13 13 13 13 13 13 14 15 16 18 18 17 16 15 15 14 14 14 13 15 17 17 16 16 14 13 13 11
17 21 25 24 22 21 20 20 18 18 17 17 17 18 18 18 18 18 19 19 19 18 15 15 16 14 11 11 10 11 11 12 11 10 10 9 10 11 11 10 8 8 9 11 10 9 10 11 11 12 11 10 11 12 12 13 12 12 13 13 14 14 14 15 16 18 22 21 19 16 14 15 15 15 14 13 15 17 18 18 18 17 15 14 13
19 23 25 24 22 21 20 19 18 18 17 17 17 18 19 19 20 20 20 20 19 17 14 14 15 12 10 10 10 11 11 12 11 10 9 8 9 11 11 10 10 8 8 10 11 10 10 10 11 12 11 10 10 11 12 12 11 11 12 13 14 14 15 16 18 22 24 22 20 15 11 13 13 13 14 14 16 17 18 19 18 18 17 16 14
20 22 25 24 22 21 20 19 18 17 17 17 17 18 19 20 21 21 20 20 19 16 14 14 13 11 11 11 11 11 11 11 11 10 9 8 8 10 11 10 9 7 6 8 11 11 10 9 10 12 11 11 11 11 11 11 10 10 10 12 13 13 14 16 19 23 22 21 19 13 7 8 10 12 14 15 15 16 17 18 18 18 17 16 15
19 22 24 24 22 21 20 18 17 17 17 17 17 18 18 20 20 20 20 20 18 15 14 13 12 11 12 13 13 13 12 12 11 11 10 8 8 9 10 10 8 6 4 5 9 11 11 9 10 12 11 11 11 10 10 10 9 9 9 11 12 13 14 15 19 20 20 20 14 9 6 5 10 12 13 13 13 14 16 17 18 17 16 14 14
19 22 22 22 22 21 20 18 18 17 17 17 18 18 18 19 20 20 20 19 17 14 13 13 12 13 14 14 14 14 13 12 12 11 10 9 9 9 10 10 9 7 6 4 5 9 10 10 9 12 12 12 12 11 10 9 8 8 8 10 11 12 13 16 20 20 20 17 10 7 7 5 9 12 12 12 13 14 15 17 18 17 16 14 13
20 22 20 20 22 21 20 19 18 17 17 18 18 18 18 19 19 19 19 17 15 14 13 14 14 14 14 14 14 14 13 13 12 12 11 11 11 10 9 8 8 7 6 4 4 6 9 10 9 11 13 13 12 12 10 9 8 8 8 9 10 11 13 16 20 21 18 11 7 6 7 6 7 9 11 12 13 14 15 16 16 17 16 15 15
19 21 18 18 22 21 20 19 19 18 18 18 18 18 18 19 19 19 18 17 15 15 15 15 15 14 14 14 14 14 14 14 14 13 12 12 12 11 9 8 7 7 6 5 4 5 7 10 9 10 14 14 13 12 11 10 8 7 7 8 9 10 12 15 19 20 13 6 6 6 8 7 3 6 9 11 13 13 13 13 14 16 17 16 16
18 20 18 17 21 21 21 20 19 18 18 18 18 19 19 20 19 19 18 17 16 16 15 15 14 13 13 14 14 14 15 15 15 14 12 13 12 10 10 9 8 7 5 4 3 4 6 9 10 11 14 15 13 12 11 10 9 8 7 7 8 8 9 12 17 16 8 5 8 8 6 2 3 5 8 11 12 12 12 12 13 15 16 16 16
18 17 17 17 20 21 21 20 19 19 19 19 19 20 20 20 19 19 18 17 17 16 15 14 13 13 13 13 14 15 16 16 16 15 13 13 13 11 10 9 9 7 5 4 3 4 5 7 10 11 13 15 14 13 12 10 9 8 7 7 7 7 7 10 17 12 4 6 8 8 4 2 5 6 8 11 11 11 12 12 13 14 15 16 16
16 16 16 17 19 21 20 19 19 19 19 20 20 21 21 20 19 19 18 17 16 15 14 13 14 14 13 14 15 15 16 16 16 15 13 13 12 12 11 9 8 7 6 5 4 4 5 6 8 9 12 14 15 14 12 10 9 8 7 6 6 7 7 11 16 8 3 6 8 6 3 1 5 6 9 10 10 11 12 12 13 13 14 14 15
16 16 16 17 19 19 19 19 19 20 20 20 21 21 20 19 19 19 18 17 16 15 14 14 15 14 14 16 16 15 16 15 15 14 13 12 11 11 10 9 8 8 7 7 5 4 4 5 6 7 10 14 14 14 13 11 9 8 7 6 5 6 7 12 13 5 4 6 8 6 1 2 4 5 9 10 10 11 11 11 11 12 12 13 14
16 16 16 17 19 20 19 19 19 20 20 20 21 20 20 19 19 19 18 16 15 14 14 15 15 15 16 17 16 15 16 15 14 13 13 11 10 10 9 8 8 7 7 6 5 4 3 3 4 6 7 10 13 14 13 12 10 8 8 7 6 6 6 12 11 2 4 5 7 3 3 3 4 4 8 8 10 9 9 10 10 11 11 12 13
16 16 16 17 19 21 20 20 20 20 20 20 20 20 20 20 18 17 17 15 14 15 15 15 15 16 17 17 16 15 15 14 13 12 12 11 9 9 9 8 7 7 6 6 5 4 4 3 4 6 7 8 11 12 12 11 10 9 9 8 6 5 5 13 12 3 4 5 5 0 5 1 2 3 6 6 8 8 9 9 9 9 10 11 12
16 15 16 17 19 20 20 21 21 20 20 20 20 20 21 19 17 17 16 15 15 16 15 16 16 16 16 16 15 15 14 13 12 12 11 10 9 9 9 9 8 7 7 6 6 5 5 4 4 5 7 8 9 10 10 10 9 9 8 8 7 6 6 12 11 3 4 5 6 1 3 1 3 3 2 4 6 6 7 8 8 8 9 10 10
15 15 16 17 18 20 22 23 23 22 21 21 21 21 20 18 17 17 16 16 16 16 15 15 16 16 16 16 15 15 14 13 12 11 11 10 10 9 8 8 8 7 6 6 6 6 5 5 4 4 6 8 9 9 9 9 8 8 7 8 8 6 7 10 10 3 3 6 4 6 4 4 3 2 1 2 4 5 6 7 7 7 8 8 9
16 16 15 16 18 19 22 24 24 24 24 24 23 21 20 18 19 17 16 16 15 15 14 15 15 15 15 16 16 15 14 13 11 11 11 10 10 9 8 7 7 7 6 6 5 5 5 4 4 4 5 6 8 8 8 8 8 7 7 8 7 7 8 8 8 2 2 6 3 8 6 5 4 3 1 1 2 4 5 6 6 6 7 7 8
18 17 17 19 20 20 21 23 23 24 24 24 23 20 18 18 18 15 15 14 13 14 13 14 15 14 15 15 15 13 13 13 11 11 11 11 11 10 9 8 7 7 6 6 5 4 4 3 3 3 4 4 5 6 6 7 7 7 7 7 7 7 8 6 6 4 3 5 5 8 7 6 4 3 1 1 2 3 3 4 5 5 6 6 6
18 18 17 16 18 20 20 21 22 22 22 21 20 18 16 16 15 13 13 13 12 13 13 14 15 15 15 14 14 13 13 13 12 12 12 12 12 11 9 8 7 6 6 5 5 4 3 2 2 2 2 2 2 4 5 5 6 7 8 7 6 5 5 4 5 5 3 4 8 7 6 7 5 3 2 2 2 2 2 2 4 5 5 5 5
15 16 16 14 13 17 20 20 20 20 20 19 18 17 16 15 13 13 14 14 14 14 14 15 16 16 14 14 14 14 13 12 11 12 12 11 11 11 9 8 7 6 6 5 4 3 2 1 1 2 1 1 1 3 2 1 3 6 8 8 6 3 4 5 5 4 4 7 9 7 6 8 6 5 3 2 2 2 2 2 2 4 5 5 5
15 14 16 17 14 16 19 20 19 19 20 19 19 18 17 16 14 15 16 16 15 15 15 15 15 15 14 14 13 13 13 11 11 12 12 11 11 10 9 8 7 6 5 4 3 1 0 1 1 1 1 2 1 1 1 4 5 3 7 10 6 4 7 7 6 5 5 10 11 5 5 8 7 6 4 2 2 3 3 2 2 2 3 5 4
15 15 16 17 16 17 18 19 21 21 20 19 19 19 18 18 17 16 17 15 14 15 15 14 15 15 14 14 14 12 11 11 11 11 11 11 10 10 8 7 7 6 5 3 2 1 1 1 1 2 2 2 2 1 2 4 5 4 3 7 5 6 8 7 7 6 7 10 11 5 5 7 8 8 7 4 2 3 3 3 2 1 2 4 5
16 17 19 18 18 20 18 18 19 18 19 20 19 19 19 19 19 18 16 15 14 15 14 14 15 16 15 14 15 12 9 10 11 11 10 9 8 8 8 8 7 7 6 5 4 2 2 2 1 2 2 4 4 4 5 6 4 3 4 5 5 7 7 7 7 7 9 10 9 6 5 6 7 8 9 6 4 4 3 3 3 1 1 3 5
17 19 23 20 20 21 19 19 18 18 19 19 19 19 20 19 19 18 16 16 15 15 16 17 18 17 17 15 14 11 9 10 10 10 9 8 7 7 8 8 8 8 7 5 6 4 3 2 1 2 2 3 5 7 7 6 6 5 5 7 6 6 7 7 8 8 11 11 9 7 6 7 6 6 8 8 5 4 4 3 3 2 1 3 5
18 20 23 20 18 19 19 18 17 19 19 19 20 19 18 18 18 17 16 16 16 17 18 19 18 16 14 13 13 12 10 9 9 9 8 8 8 8 8 8 9 9 8 6 7 6 3 3 3 5 5 5 7 7 6 6 8 6 5 7 7 7 8 8 8 9 10 10 10 8 7 7 6 5 7 8 6 4 4 4 3 3 3 4 6
18 19 20 18 19 19 17 16 16 21 22 20 21 20 18 17 17 17 17 16 14 14 14 13 13 11 10 9 10 11 11 10 9 8 8 8 8 9 9 9 10 9 8 6 6 7 6 7 8 8 7 7 7 6 6 5 7 7 6 7 8 8 8 9 9 9 9 9 9 8 6 6 5 5 5 7 7 4 4 4 3 3 3 4 6
16 17 17 18 20 19 17 15 14 19 22 21 20 19 17 17 17 16 16 15 11 11 12 10 9 9 8 8 6 7 8 8 8 9 8 8 8 9 9 9 10 9 7 6 6 7 8 9 9 9 7 7 7 7 7 6 6 6 6 7 7 8 9 10 9 9 9 9 9 8 5 5 4 4 4 5 7 4 3 3 3 3 2 4 6
15 16 16 17 18 19 18 16 16 17 19 20 19 16 16 16 15 17 18 13 11 11 10 8 7 7 6 5 4 5 6 7 8 8 8 8 8 9 9 9 9 10 9 8 8 8 9 9 8 7 6 6 7 7 7 6 6 5 6 7 7 8 9 9 9 9 10 9 10 8 5 5 5 4 3 4 5 4 3 3 3 3 2 2 5
16 17 16 17 17 18 17 16 16 17 17 17 18 17 16 16 13 15 16 10 11 11 7 5 5 5 3 1 3 6 6 7 10 9 8 8 8 8 8 9 10 10 11 11 10 10 9 8 6 6 5 5 6 7 7 6 6 5 5 7 6 7 7 8 9 8 8 8 9 8 6 6 6 5 4 3 3 2 2 3 2 3 2 2 4
17 18 16 16 18 18 17 16 16 16 17 15 17 17 15 14 11 10 11 10 11 9 6 5 4 4 3 3 5 7 7 9 10 9 8 8 8 7 6 7 9 9 10 11 10 10 8 6 5 6 6 6 5 5 6 6 6 6 5 6 6 7 7 7 7 7 7 7 7 8 8 8 8 7 4 3 1 1 1 3 3 2 1 2 2
17 17 16 17 19 17 16 17 17 18 18 16 16 16 13 12 11 9 9 10 10 8 6 5 4 5 4 4 6 7 8 9 9 9 9 8 8 7 6 6 7 7 9 11 10 10 8 6 6 6 6 8 6 4 5 6 6 6 6 6 6 7 6 6 7 7 7 8 7 7 9 9 9 8 5 4 1 1 1 2 3 3 2 2 2
16 16 17 18 20 19 15 16 19 18 18 17 15 14 12 11 11 9 7 6 6 5 5 4 4 5 4 3 5 6 8 8 8 9 10 8 7 6 5 5 7 8 9 10 10 10 8 6 6 6 6 7 7 6 6 7 7 7 7 6 5 6 6 6 6 7 7 7 7 7 8 9 10 8 6 4 3 3 3 2 2 3 2 1 0
16 17 17 17 20 20 15 16 20 18 16 16 14 12 11 9 8 6 4 3 3 2 2 2 2 2 2 3 3 4 6 7 7 7 8 7 5 5 6 6 6 7 7 8 8 9 8 7 6 7 7 7 6 6 6 9 9 7 7 6 5 5 7 6 5 5 6 6 6 7 8 8 10 9 7 5 4 3 3 3 2 2 2 2 1
15 17 17 17 20 20 15 16 20 19 16 13 13 12 11 10 6 4 3 2 2 1 1 1 1 2 3 2 3 3 4 4 4 5 6 5 4 5 6 6 5 6 6 6 7 7 8 7 7 7 8 7 7 6 7 9 11 7 6 7 6 6 5 5 5 5 5 6 6 7 8 8 9 9 8 6 4 3 3 3 3 4 4 4 2
15 17 18 19 21 19 16 15 17 16 14 12 11 11 10 9 6 4 4 3 3 2 2 2 2 3 1 0 1 2 2 1 2 4 4 3 3 4 5 5 5 5 4 4 5 7 7 7 8 8 8 8 7 7 7 8 9 8 6 6 5 6 5 4 5 5 5 6 6 8 9 9 8 7 7 7 7 5 2 2 2 3 4 4 3
15 17 18 19 20 18 15 15 13 11 10 10 10 9 8 7 6 6 6 5 5 4 4 3 3 3 2 2 2 1 1 2 1 3 3 2 3 3 4 5 4 3 3 3 4 7 7 7 8 7 8 9 8 7 7 7 9 9 7 5 5 6 5 5 5 5 5 6 7 8 9 9 7 6 6 7 9 8 6 4 2 3 3 3 2
15 15 17 19 17 15 15 13 11 10 9 9 8 7 7 7 8 8 7 7 5 5 5 4 4 4 3 3 3 2 2 2 2 1 1 2 2 4 5 4 3 1 2 3 4 6 8 8 7 7 8 9 8 8 8 7 7 8 5 4 5 5 5 6 5 4 6 8 8 7 7 7 5 6 7 8 9 9 8 8 4 3 3 2 1
15 14 16 17 14 14 14 13 11 11 11 10 8 8 8 8 9 8 8 7 6 6 7 7 6 6 5 4 3 3 3 2 3 2 1 1 0 3 3 2 2 1 1 2 3 4 6 7 6 7 8 8 6 7 9 9 7 6 4 3 4 3 4 7 5 5 7 8 9 8 7 3 2 2 6 7 7 7 9 11 9 7 6 4 2
15 16 17 15 13 14 15 14 12 11 11 10 9 10 8 8 9 8 8 8 7 7 8 8 7 7 6 5 4 3 3 3 2 2 2 2 2 1 2 1 1 1 2 2 2 2 4 5 5 6 7 7 7 8 9 9 6 5 4 5 6 6 5 6 5 5 6 6 7 10 10 4 3 1 4 5 6 8 10 10 10 9 8 6 5
17 18 17 15 14 14 13 14 14 13 11 10 10 10 8 7 9 8 8 9 7 7 7 6 6 6 6 6 6 5 4 3 1 2 2 2 2 2 2 2 2 1 1 1 1 1 2 2 3 4 5 5 7 8 8 6 4 5 6 5 5 6 6 4 4 5 6 7 6 7 9 4 1 1 3 6 6 7 8 7 8 9 8 7 6
18 21 16 15 14 14 14 16 16 15 14 13 14 13 9 8 9 10 9 9 9 9 8 7 7 6 7 7 6 6 6 5 3 4 4 2 2 2 2 2 1 1 2 1 1 2 3 2 3 3 2 3 6 7 6 6 4 4 5 4 4 5 5 3 4 6 6 7 5 5 6 3 1 2 4 5 6 4 4 6 6 7 8 8 7
17 23 18 17 17 15 17 18 16 16 15 15 15 13 11 12 12 12 12 11 11 11 10 9 8 8 8 8 7 8 7 6 5 5 4 2 2 3 4 3 2 3 2 1 1 0 1 2 3 2 2 3 5 4 3 4 5 4 3 3 4 3 5 4 4 5 5 6 4 4 4 4 3 4 5 4 4 3 2 5 7 7 8 8 8
17 21 20 19 19 18 18 19 18 18 17 16 14 13 13 14 14 14 13 12 12 10 9 9 9 9 8 8 9 9 8 7 7 5 4 3 3 3 4 4 3 3 3 3 2 2 1 1 2 2 2 3 4 2 2 2 3 5 4 3 3 2 2 2 2 3 3 3 3 2 3 6 4 4 6 4 5 4 4 6 7 7 6 7 8
15 18 19 18 19 20 19 19 20 21 20 17 15 15 14 14 15 15 14 13 12 10 9 9 9 9 9 9 10 9 8 7 6 5 4 3 3 3 4 4 3 3 3 3 3 4 3 2 1 2 2 3 3 1 2 2 1 3 3 2 2 1 1 2 2 2 3 3 3 2 2 6 5 4 6 5 5 5 6 6 5 5 4 4 4
15 18 21 21 21 19 18 20 21 20 20 18 17 16 15 15 16 15 14 13 12 11 10 10 9 9 9 10 10 9 8 8 6 5 4 4 4 4 5 5 4 5 5 4 4 4 4 3 2 2 4 4 2 1 1 1 2 3 2 2 3 2 2 2 2 2 1 1 1 2 1 3 4 5 5 3 3 3 3 2 1 1 1 2 3
16 20 22 21 20 18 18 21 21 17 18 19 19 17 15 15 16 15 14 13 12 12 12 11 10 10 10 10 10 9 8 8 7 7 5 5 5 5 5 5 5 5 4 5 5 4 3 3 2 2 3 4 3 4 4 2 3 3 3 3 3 2 1 1 3 2 1 0 2 2 1 2 3 4 5 5 4 4 4 3 3 4 5 5 4
18 19 20 19 18 18 19 20 19 17 18 19 19 17 15 15 15 15 15 14 13 13 12 11 11 12 12 10 10 9 9 9 9 8 7 7 7 7 6 7 7 6 5 5 5 4 4 3 1 2 3 4 4 4 5 5 4 4 5 6 4 4 3 2 2 1 1 0 2 4 5 5 5 6 7 8 8 7 8 6 6 8 7 5 4
19 19 20 19 19 20 19 19 20 18 17 19 17 16 15 13 14 15 16 16 15 14 12 12 12 12 12 11 10 9 9 10 9 9 8 8 8 8 7 8 9 8 8 8 7 6 5 4 2 2 3 4 5 5 5 6 6 6 8 8 7 7 5 4 4 2 2 2 2 4 6 7 8 8 9 10 10 9 9 9 9 9 8 6 5
19 19 21 21 22 22 19 18 19 18 16 17 15 15 15 13 13 15 16 17 16 14 13 13 13 13 12 11 10 10 10 10 9 9 9 9 10 9 9 8 9 9 9 9 8 8 7 7 6 5 5 6 7 7 7 7 8 8 8 9 8 8 7 8 8 6 5 5 5 6 7 7 8 9 10 10 10 10 11 11 11 11 9 8 8
Wind_Direction
158 187 181 171 161 154 154 149 148 145 146 146 148 153 158 162 163 163 159 156 152 149 145 142 138 134 128 124 122 120 121 126 132 132 131 133 136 141 148 157 156 149 143 139 136 140 141 139 136 127 115 107 102 100 104 107 106 101 97 93 89 86 82 77 78 78 77 74 74 74 75 76 73 71 67 66 64 65 72 64 57 56 73 103 126
161 181 176 169 161 156 155 151 150 145 145 144 148 153 158 163 164 164 161 157 154 153 149 146 143 137 132 128 125 126 127 130 138 140 140 138 137 137 141 153 162 164 159 155 151 151 151 145 137 128 118 112 106 107 109 108 105 100 96 91 87 86 84 78 75 76 74 73 70 69 71 72 71 71 68 64 66 67 62 60 67 75 84 98 118
162 172 173 166 160 159 155 152 151 146 145 143 146 151 157 162 165 166 162 160 159 158 154 151 147 140 135 131 129 131 131 132 140 146 145 142 141 140 141 144 158 175 177 173 166 160 161 154 139 129 121 114 113 113 111 108 103 98 94 89 85 83 86 82 78 79 77 72 64 60 56 61 66 63 63 58 61 64 59 56 63 76 89 99 106
161 167 170 163 161 159 156 154 151 148 144 142 144 146 153 161 166 166 164 164 164 163 159 155 149 141 135 131 132 134 133 134 140 148 151 148 147 147 146 144 155 175 185 186 177 167 166 161 143 133 127 120 120 116 112 109 103 100 97 92 86 82 87 87 84 80 72 65 61 56 31 38 58 58 58 55 58 58 56 54 57 70 86 102 107
153 164 167 161 161 161 158 156 152 149 145 143 143 144 150 159 166 166 166 168 167 166 162 155 149 142 134 130 132 133 132 135 140 147 151 155 154 152 151 149 159 174 188 190 183 175 170 167 151 138 132 129 127 119 114 111 107 102 99 94 88 83 85 88 85 75 70 63 63 64 27 25 47 56 56 54 56 51 51 50 53 63 73 89 102
150 161 164 160 161 162 159 156 153 149 147 146 145 146 150 157 164 166 168 169 169 168 160 155 150 140 133 130 130 130 130 134 140 144 147 153 156 153 155 158 170 185 195 187 180 178 173 171 159 145 138 136 135 126 119 115 112 105 101 94 87 83 85 88 82 73 71 65 59 64 53 21 26 56 61 54 57 52 50 47 51 62 68 74 86
149 156 160 161 162 162 160 158 155 152 150 149 148 148 151 157 162 165 168 169 171 168 161 157 152 141 136 135 132 130 129 134 138 141 146 151 152 148 150 152 159 163 163 167 171 176 172 174 164 152 147 144 144 135 126 121 116 110 102 92 88 84 84 86 81 77 74 67 60 68 77 15 13 55 65 56 58 57 55 47 48 58 69 73 78
148 150 157 163 165 163 162 160 156 155 152 151 150 150 152 156 160 164 168 170 172 169 164 159 152 145 142 141 136 132 130 132 137 142 148 148 146 141 140 141 142 136 123 124 160 172 171 177 171 158 157 154 151 144 134 129 122 115 103 93 91 85 83 82 78 74 70 68 71 70 67 20 7 45 61 62 61 60 60 51 47 52 65 73 76
148 151 158 168 170 164 163 161 158 157 154 153 151 151 152 154 159 163 166 169 169 166 162 157 153 151 148 144 138 134 131 133 136 140 145 144 143 143 144 142 140 134 126 123 147 170 171 177 176 165 164 163 158 152 144 137 132 124 111 100 94 90 88 82 73 66 62 63 78 84 93 76 4 28 56 65 66 63 62 53 49 51 59 67 73
149 156 160 171 173 166 164 163 160 159 156 155 153 152 152 153 158 161 164 163 162 161 160 157 156 156 151 145 140 137 137 137 136 134 138 142 145 149 150 144 137 133 136 139 153 174 178 180 180 174 170 170 164 157 151 144 144 136 124 111 99 97 93 84 75 66 60 60 81 103 121 119 349 14 57 67 70 68 66 58 54 54 56 60 67
152 158 160 171 175 168 165 164 162 160 158 157 156 155 154 155 157 159 160 158 159 160 160 158 158 156 149 145 142 143 145 142 136 133 135 139 144 151 152 150 146 144 147 150 163 181 184 182 182 182 176 174 167 162 158 154 155 149 139 124 111 104 97 89 78 66 60 65 74 76 80 94 350 39 67 72 76 76 76 70 63 60 57 57 61
157 155 163 171 173 169 166 166 163 161 160 160 159 157 156 157 157 157 157 158 160 160 160 159 157 152 149 149 148 154 152 144 137 134 135 137 143 151 157 159 158 160 167 170 181 187 187 181 182 183 179 177 173 171 168 165 166 161 157 137 126 111 96 85 79 73 68 69 77 85 87 16 17 57 73 73 80 79 77 73 68 65 61 59 59
160 159 165 168 171 170 168 167 165 164 163 163 162 159 158 157 157 157 159 161 160 158 158 159 157 153 155 156 156 158 151 144 140 136 134 136 143 152 162 168 169 177 186 192 190 179 178 180 185 183 180 181 180 181 177 177 176 171 171 152 139 119 103 86 80 81 79 80 83 92 177 260 19 55 70 73 78 77 75 73 72 69 67 64 61
158 164 163 164 170 170 170 170 168 168 167 166 163 160 159 158 159 160 162 162 159 158 159 162 161 158 160 159 158 155 149 145 140 136 134 136 143 148 158 165 170 180 186 192 190 172 172 184 188 175 178 184 185 188 186 189 189 183 179 167 153 131 119 90 78 82 90 86 84 82 226 22 31 61 68 73 74 74 78 75 75 74 72 68 65
160 167 162 163 169 170 171 172 171 171 170 168 165 164 163 163 164 162 163 162 160 160 162 166 165 164 164 158 157 155 150 146 140 138 137 137 141 143 149 154 157 165 170 179 186 179 167 170 168 151 161 181 190 194 191 194 199 199 190 180 168 155 133 98 91 102 89 82 93 118 251 10 20 58 68 71 75 76 80 78 78 76 76 75 71
164 165 161 164 167 168 171 172 173 172 171 170 168 169 169 168 165 162 162 163 163 165 167 170 170 168 164 157 156 154 149 147 144 140 138 138 140 142 143 144 144 143 145 149 156 161 156 150 149 145 145 164 189 196 192 195 202 208 204 191 183 174 144 114 111 108 98 104 94 42 272 27 9 32 68 67 77 82 82 81 79 76 77 79 77
163 158 158 162 165 166 170 173 173 173 172 171 173 174 174 170 164 161 163 166 169 170 172 173 172 169 165 162 161 157 153 154 151 144 141 143 145 146 144 143 141 135 133 131 133 138 143 148 149 154 147 151 175 189 188 191 197 203 203 192 183 172 153 123 111 115 148 113 90 131 261 49 5 353 57 61 74 83 86 84 79 78 76 77 80
156 157 162 162 164 169 172 174 173 172 173 175 177 177 176 171 163 161 165 171 173 173 175 175 173 171 169 167 167 161 157 157 154 150 149 150 151 152 150 147 142 139 140 135 134 132 135 143 145 154 150 151 164 182 185 184 188 189 191 187 178 163 153 127 111 137 162 102 119 203 251 338 345 332 8 48 61 70 84 91 85 84 81 78 79
151 159 164 163 165 173 177 175 174 175 178 181 179 177 178 169 160 163 168 174 174 176 178 177 178 176 174 170 166 161 158 158 155 155 155 155 156 158 160 157 149 148 150 146 142 138 140 141 142 148 151 156 162 177 186 183 184 182 187 188 182 166 152 128 115 144 122 107 195 238 275 322 322 304 315 11 37 49 68 96 99 93 90 88 84
158 163 164 171 171 171 176 178 179 181 183 184 177 176 181 166 157 166 172 175 178 180 179 179 182 181 178 171 163 162 164 165 162 159 157 157 159 163 168 167 163 159 161 158 154 154 155 152 151 156 161 166 163 170 182 185 185 182 188 189 189 177 161 135 125 166 148 141 226 250 273 303 312 295 298 332 3 28 36 87 110 108 99 98 96
165 170 169 177 178 173 174 180 183 184 185 180 173 174 178 163 158 172 176 180 181 179 179 183 186 183 180 169 163 165 167 169 166 160 155 159 163 169 173 173 173 172 174 170 168 172 170 176 179 186 179 172 174 177 177 184 190 186 188 193 192 178 176 166 148 178 167 176 234 250 276 301 306 293 306 318 331 350 353 54 102 116 115 109 106
166 170 170 175 181 175 175 183 185 185 184 176 172 175 178 166 167 180 181 184 180 178 181 184 187 184 179 166 162 166 166 167 164 158 158 165 168 171 174 176 184 188 188 182 186 192 181 205 211 221 202 161 204 211 206 241 215 189 186 190 179 162 220 215 172 186 176 191 232 252 281 297 304 300 309 310 316 316 311 356 62 109 129 128 119
164 163 171 177 181 177 176 185 184 179 180 179 177 176 177 170 176 187 185 184 179 181 179 182 188 181 172 163 165 170 168 167 165 164 166 171 171 171 173 180 191 197 197 189 184 172 162 241 226 209 182 167 168 160 249 298 299 252 187 175 165 181 220 218 189 190 197 217 237 249 277 295 309 307 307 307 309 307 303 314 348 72 131 147 138
164 162 174 176 178 184 184 187 182 174 176 178 176 175 175 171 178 188 187 181 177 182 177 179 186 172 167 171 172 174 172 173 173 170 170 174 174 173 175 183 193 198 196 188 181 148 162 201 208 210 177 162 153 128 191 233 277 292 201 173 184 206 205 204 197 197 209 231 247 249 269 293 307 309 310 305 300 301 303 303 312 16 108 154 156
167 171 180 174 168 179 184 185 181 174 175 175 173 174 173 171 176 183 181 175 173 177 170 174 185 174 172 176 169 168 175 179 179 175 175 182 184 184 185 187 193 198 194 193 203 191 188 202 216 229 170 136 174 202 196 193 209 233 216 199 210 206 194 199 199 201 213 231 252 258 274 291 296 302 305 305 311 300 291 287 283 308 94 152 167
171 178 184 178 166 170 177 181 177 172 174 172 169 169 170 167 171 176 172 167 171 173 172 179 187 183 175 170 162 160 173 177 183 183 175 182 193 199 200 202 204 203 198 204 221 207 196 218 228 236 187 151 191 202 197 194 196 202 210 209 211 202 194 204 202 208 221 232 249 258 273 286 288 293 297 299 308 303 287 272 262 240 165 164 176
182 187 186 183 175 173 173 174 169 165 171 170 165 164 163 161 165 170 164 167 176 176 182 184 182 181 168 161 158 159 174 178 189 195 178 179 194 203 199 200 207 205 194 201 227 212 199 232 227 221 207 194 200 199 197 199 191 190 206 207 206 203 199 207 209 218 227 231 242 251 266 279 284 287 291 293 296 300 283 264 251 226 193 181 180
191 192 190 193 192 184 172 169 158 154 162 165 159 155 156 159 162 164 165 175 179 170 179 180 168 167 158 157 159 162 180 183 188 200 193 181 185 201 199 194 198 200 192 194 223 214 205 217 216 211 207 203 199 191 192 195 189 183 199 205 203 204 203 208 208 220 231 227 235 239 251 272 282 289 297 295 295 293 265 251 245 224 197 188 182
195 191 191 197 195 183 171 169 162 155 159 162 156 146 147 159 158 160 171 174 171 167 173 170 155 159 162 160 161 176 192 193 196 203 205 191 185 202 203 202 201 191 195 211 224 221 213 216 218 208 197 203 202 190 185 188 192 187 193 198 200 205 206 210 207 218 228 223 232 231 236 268 281 286 300 304 303 297 238 225 233 226 208 191 177
199 194 191 192 186 177 175 173 173 168 158 157 160 152 147 158 161 165 172 166 168 174 169 165 161 173 179 156 168 208 212 219 222 216 217 211 210 216 199 200 206 189 194 212 218 225 221 216 218 209 193 197 205 199 186 178 186 187 191 192 195 206 209 212 210 218 228 223 224 220 214 251 274 276 288 307 312 304 239 223 227 213 207 191 171
193 191 187 186 176 173 178 171 169 169 159 155 161 163 157 159 163 164 166 166 176 170 156 175 188 194 199 173 209 220 225 235 234 231 234 224 227 234 207 204 213 198 199 207 216 228 228 223 224 227 221 207 204 203 195 183 186 183 183 186 185 197 203 206 209 218 230 223 210 212 220 237 259 262 269 287 310 316 238 216 242 223 205 216 181
189 188 180 178 172 171 176 167 161 162 161 163 163 163 158 157 162 163 167 174 173 162 160 191 207 204 197 210 220 219 224 231 231 237 241 232 234 236 213 217 222 210 210 214 229 240 236 241 244 241 235 218 208 203 202 195 193 186 178 185 182 188 198 202 208 211 223 229 211 213 229 236 249 250 245 255 277 340 207 192 225 237 232 267 194
189 184 176 176 170 169 173 163 161 164 161 165 167 159 154 159 163 168 182 178 171 170 173 182 204 217 216 225 229 227 228 229 230 236 237 234 238 232 210 218 223 215 220 225 237 244 236 236 237 240 238 231 237 239 220 210 207 199 185 183 182 185 192 200 207 199 207 236 234 220 226 231 240 241 229 222 187 118 121 155 197 214 239 263 218
185 178 177 178 173 173 176 161 163 169 164 166 164 156 158 164 161 171 188 176 176 185 180 185 204 217 223 226 232 236 233 229 228 234 237 232 228 228 220 211 209 211 229 236 233 235 239 235 234 243 243 239 250 260 241 226 219 204 191 187 184 194 192 185 202 197 197 228 236 219 213 220 229 225 211 187 152 138 120 118 185 202 207 191 135
179 176 175 171 174 177 172 161 167 173 173 170 161 155 158 154 157 175 185 170 172 189 201 205 207 202 184 175 196 222 230 228 227 231 231 225 214 220 224 211 209 215 224 233 226 228 238 234 235 242 240 236 243 254 248 248 248 221 200 197 187 207 203 187 207 203 199 223 232 224 212 213 219 212 202 177 148 148 137 119 137 165 164 124 85
177 177 170 170 182 180 166 160 168 174 178 173 164 163 155 149 162 170 161 159 146 152 178 145 118 127 137 148 158 186 222 223 223 236 232 219 215 226 228 215 220 225 214 219 222 226 235 235 239 243 236 229 231 240 236 247 261 247 208 200 189 202 204 205 226 212 209 226 232 236 225 215 216 207 202 201 185 169 145 129 129 140 141 135 139
180 176 169 180 189 180 168 165 164 166 167 163 163 167 161 157 163 147 139 141 130 123 104 95 102 112 120 135 139 164 228 255 215 244 247 211 203 222 231 231 230 226 211 220 228 228 236 235 237 243 240 235 230 238 239 237 249 250 223 207 208 213 199 214 235 219 219 232 235 241 232 218 220 218 209 213 213 209 205 173 145 144 146 147 156
178 174 174 190 192 174 170 172 164 163 165 165 167 166 160 150 143 141 144 136 124 116 103 97 96 100 93 50 45 66 325 323 266 251 249 186 188 205 217 238 239 220 198 211 235 241 245 233 231 240 241 239 229 231 251 245 237 240 227 201 224 226 200 216 239 240 238 240 243 248 243 225 203 200 211 223 228 225 224 214 161 152 158 148 144
174 172 178 193 188 163 169 181 171 173 183 186 180 160 145 143 142 142 139 130 124 125 117 109 102 100 99 86 62 42 37 349 339 333 237 174 196 208 206 215 213 194 211 223 237 248 253 249 247 243 237 242 238 232 241 243 236 242 228 192 219 222 209 232 239 249 263 261 263 266 259 241 181 178 199 212 230 233 226 225 214 190 174 141 116
173 156 161 183 174 145 166 190 181 178 188 191 179 147 136 147 147 136 129 129 138 136 116 104 99 92 83 81 82 78 68 38 18 19 13 47 216 231 227 217 197 137 185 227 231 246 267 271 264 243 235 240 245 244 246 247 250 252 231 204 239 232 228 256 249 235 266 280 284 282 271 283 60 186 201 200 222 232 230 232 229 223 216 195 169
172 155 156 171 160 145 163 181 184 185 185 181 162 139 141 152 142 136 137 136 142 134 115 109 111 109 107 100 89 82 81 74 53 61 63 48 43 350 348 6 353 108 139 184 210 232 274 276 262 240 233 230 232 244 253 256 262 261 233 214 236 237 231 260 261 242 264 278 285 286 279 299 14 258 218 217 228 227 230 231 225 225 224 211 207
161 156 165 166 159 162 167 174 179 179 175 169 155 143 147 149 139 146 149 137 133 124 116 118 118 125 135 131 122 104 87 85 73 62 58 54 68 45 27 37 11 358 37 23 341 305 296 288 277 252 234 237 245 253 256 249 254 268 255 236 241 247 237 242 260 254 257 261 278 297 290 299 6 219 195 208 215 219 225 225 227 228 220 216 219
150 147 160 166 173 184 184 182 173 167 170 163 154 150 153 160 154 151 143 132 134 134 130 123 115 117 119 123 131 116 95 78 57 47 39 35 53 57 53 58 62 37 22 5 339 323 306 313 316 289 262 264 256 259 264 239 223 255 266 268 271 266 257 249 256 253 250 258 273 309 311 342 59 112 130 167 171 175 202 204 218 225 214 214 215
147 150 160 164 173 185 184 181 168 164 169 159 154 158 162 167 160 149 145 144 144 142 134 119 111 109 106 111 115 106 100 90 77 67 52 55 53 49 51 46 65 78 75 91 92 328 297 311 314 306 309 280 257 259 290 249 220 236 268 278 265 270 285 282 260 249 253 264 272 308 338 18 39 89 104 152 159 137 165 183 202 218 210 195 194
144 152 160 160 166 174 176 176 171 167 163 157 163 167 165 166 160 153 153 148 138 131 124 116 113 110 107 111 108 103 104 98 90 81 51 42 50 57 64 53 61 88 83 73 67 73 46 358 326 317 320 299 282 281 314 291 214 230 251 279 262 256 304 303 272 245 242 256 255 287 29 40 22 68 99 147 169 172 180 184 211 228 211 177 178
143 150 159 164 171 172 173 177 175 166 158 161 171 171 169 166 158 152 146 138 130 128 127 121 119 119 114 111 108 109 111 102 96 94 73 52 50 60 68 58 53 69 71 73 62 50 34 20 8 4 12 342 309 285 301 343 334 251 246 267 256 241 289 310 304 224 216 238 226 222 66 51 36 66 91 123 145 169 188 198 220 222 201 165 159
146 155 162 169 172 168 171 173 168 160 157 165 172 174 174 163 151 145 139 135 133 134 132 125 123 124 120 116 113 111 109 106 103 97 89 79 75 76 74 66 54 40 29 35 48 43 28 18 11 24 36 23 1 12 13 334 316 299 292 271 247 243 261 276 275 216 203 234 209 237 261 63 68 83 79 94 119 142 175 196 208 163 86 57 77
152 156 161 163 159 159 168 168 165 163 163 170 176 175 172 160 150 144 138 138 141 141 137 131 128 125 119 115 112 108 105 106 101 91 84 82 83 86 90 86 73 56 37 38 44 44 54 51 23 25 42 41 32 29 42 40 339 331 345 330 303 304 302 269 270 269 327 206 123 64 34 52 78 105 92 72 65 66 83 71 48 63 52 35 42
160 156 158 151 144 158 170 169 170 171 169 177 179 171 168 161 150 144 140 145 147 140 136 134 133 128 122 120 117 116 116 111 104 97 90 84 82 80 91 101 89 75 71 71 65 57 63 70 44 29 40 46 39 31 46 48 21 11 16 12 5 348 317 263 269 278 350 327 112 92 87 71 65 90 87 73 69 64 71 70 51 63 77 69 52
169 167 164 159 160 170 176 174 175 176 176 182 180 169 165 158 150 148 147 148 144 138 140 141 135 131 128 125 121 117 120 119 115 112 105 102 99 87 85 97 94 85 79 76 71 65 69 75 68 38 35 47 45 36 42 44 38 42 36 27 20 11 0 2 8 10 40 57 102 117 114 99 83 84 82 75 78 77 75 76 70 73 82 78 68
173 173 166 169 177 177 178 180 180 181 181 183 181 170 163 156 152 153 151 149 146 145 148 144 137 134 131 127 124 124 126 127 125 124 120 119 117 106 94 92 93 92 86 79 73 66 69 73 69 64 60 62 58 48 48 49 43 39 39 34 24 20 21 19 17 21 35 62 96 108 111 111 99 95 96 90 87 84 77 74 73 76 78 73 72